Weather History for Morris, MN

Change the Weather History Date:

Tuesday, May 14, 2013

  Actual Average Record
Temperature  
Mean Temperature 72 °F -  
Max Temperature 93 °F 63 °F 95 °F (2001)
Min Temperature 51 °F 41 °F 28 °F (2000)
Cooling Degree Days 7    
Growing Degree Days 22 (Base 50)    
Moisture  
Dew Point 43 °F    
Average Humidity 39    
Maximum Humidity 68    
Minimum Humidity 14    
Precipitation  
Precipitation 0.01 in - - ()
Sea Level Pressure  
Sea Level Pressure 29.62 in    
Wind  
Wind Speed 12 mph (West)    
Max Wind Speed 33 mph    
Max Gust Speed 44 mph    
Visibility 10 miles    
Events Rain , Thunderstorm    
Averages and records for this station are not official NWS values.
T = Trace of Precipitation, MM = Missing Value Source: NWS Daily Summary

Daily Weather History Graph

Daily Weather History Graph

Search for Another Location

Airport:

Trip Planner

Search our weather history database for the weather conditions in past years. The results will help you decide how hot, cold, wet, or windy it might be!

Date:

Astronomy

May. 14, 2013 Rise Set
Actual Time 5:53 AM CDT 8:47 PM CDT
Civil Twilight 5:19 AM CDT 9:21 PM CDT
Nautical Twilight 4:35 AM CDT 10:06 PM CDT
Astronomical Twilight 3:43 AM CDT 10:58 PM CDT
Moon 9:35 AM CDT (5/14) No Moon Set
Length of Visible Light 16h 02m
Length of Day
14h 53m
Waxing Crescent, 19% of the Moon is Illuminated
May 14
Waxing Crescent
May 17
First Quarter
May 24
Full
May 31
Last Quarter
Jun 8
New

Hourly Weather History & Observations

Time (CDT) Temp. Dew Point Humidity Pressure Visibility Wind Dir Wind Speed Gust Speed Precip Events Conditions
12:12 AM 64.4 °F 41.0 °F 42% 29.68 in 10.0 mi West 4.6 mph - N/A   Clear
12:32 AM 62.6 °F 39.2 °F 42% 29.67 in 10.0 mi WNW 5.8 mph - N/A   Clear
12:52 AM 62.6 °F 39.2 °F 42% 29.67 in 10.0 mi Calm Calm - N/A   Clear
1:12 AM 60.8 °F 39.2 °F 45% 29.67 in 10.0 mi Calm Calm - N/A   Clear
1:32 AM 60.8 °F 39.2 °F 45% 29.67 in 10.0 mi Calm Calm - N/A   Clear
1:52 AM 57.2 °F 39.2 °F 51% 29.67 in 10.0 mi Calm Calm - N/A   Clear
2:12 AM 55.4 °F 39.2 °F 54% 29.67 in 10.0 mi Calm Calm - N/A   Clear
2:32 AM 53.6 °F 39.2 °F 58% 29.67 in 10.0 mi South 3.5 mph - N/A   Clear
2:52 AM 53.6 °F 37.4 °F 54% 29.66 in 10.0 mi SSE 4.6 mph - N/A   Clear
3:12 AM 51.8 °F 39.2 °F 62% 29.65 in 10.0 mi South 3.5 mph - N/A   Clear
3:32 AM 53.6 °F 39.2 °F 58% 29.64 in 10.0 mi SSE 4.6 mph - N/A   Clear
3:52 AM 51.8 °F 39.2 °F 62% 29.64 in 10.0 mi SSE 5.8 mph - N/A   Clear
4:12 AM 51.8 °F 39.2 °F 62% 29.63 in 10.0 mi SE 8.1 mph - N/A   Clear
4:52 AM 53.6 °F 41.0 °F 62% 29.61 in 10.0 mi ESE 9.2 mph - N/A   Clear
5:12 AM 51.8 °F 39.2 °F 62% 29.60 in 10.0 mi ESE 9.2 mph - N/A   Clear
5:32 AM 53.6 °F 41.0 °F 62% 29.62 in 10.0 mi SE 5.8 mph - N/A   Unknown
5:52 AM - - N/A% 29.64 in 10.0 mi SSE 4.6 mph - N/A   Unknown
6:12 AM 55.4 °F 42.8 °F 63% 29.60 in 10.0 mi SE 10.4 mph - N/A   Clear
6:32 AM 57.2 °F 42.8 °F 59% 29.59 in 10.0 mi SE 11.5 mph - N/A   Clear
6:52 AM 57.2 °F 44.6 °F 63% 29.62 in 10.0 mi SE 4.6 mph - N/A   Scattered Clouds
7:12 AM 59.0 °F 44.6 °F 59% 29.59 in 10.0 mi SE 9.2 mph - N/A   Clear
7:32 AM 60.8 °F 46.4 °F 59% 29.59 in 10.0 mi SE 6.9 mph - N/A Rain , Thunderstorm Light Thunderstorms and Rain
7:52 AM 60.8 °F 50.0 °F 68% 29.58 in 7.0 mi SE 9.2 mph - N/A Rain Light Rain
8:12 AM 62.6 °F 48.2 °F 59% 29.60 in 10.0 mi South 10.4 mph - 0.01 in Rain Light Rain
8:32 AM 60.8 °F 48.2 °F 63% 29.59 in 10.0 mi South 13.8 mph - 0.01 in Rain Light Rain
8:52 AM 64.4 °F 50.0 °F 59% 29.59 in 10.0 mi SSE 13.8 mph - 0.01 in   Scattered Clouds
9:12 AM 66.2 °F 51.8 °F 60% 29.56 in 10.0 mi SSE 12.7 mph - N/A   Scattered Clouds
9:32 AM 71.6 °F 51.8 °F 50% 29.54 in 10.0 mi NW 3.5 mph 10.4 mph N/A   Clear
9:52 AM 82.4 °F 51.8 °F 35% 29.49 in 10.0 mi SSE 20.7 mph - N/A   Clear
10:12 AM 84.2 °F 48.2 °F 29% 29.49 in 10.0 mi SE 13.8 mph 20.7 mph N/A   Clear
10:32 AM 84.2 °F 50.0 °F 30% 29.50 in 10.0 mi SSE 13.8 mph - N/A   Clear
10:52 AM 87.8 °F 48.2 °F 25% 29.50 in 10.0 mi South 17.3 mph - N/A   Clear
11:12 AM 87.8 °F 46.4 °F 24% 29.52 in 10.0 mi South 13.8 mph - N/A   Clear
11:32 AM 89.6 °F 46.4 °F 22% 29.52 in 10.0 mi SW 16.1 mph - N/A   Clear
11:52 AM 89.6 °F 46.4 °F 22% 29.53 in 10.0 mi WNW 15.0 mph 18.4 mph N/A   Clear
12:12 PM 89.6 °F 46.4 °F 22% 29.53 in 10.0 mi West 9.2 mph 16.1 mph N/A   Clear
12:32 PM 91.4 °F 46.4 °F 21% 29.53 in 10.0 mi WNW 19.6 mph 27.6 mph N/A   Clear
12:52 PM 91.4 °F 46.4 °F 21% 29.53 in 10.0 mi WNW 15.0 mph 23.0 mph N/A   Clear
1:12 PM 91.4 °F 46.4 °F 21% 29.53 in 10.0 mi NW 17.3 mph 26.5 mph N/A   Clear
1:32 PM 93.2 °F 46.4 °F 20% 29.54 in 10.0 mi NW 21.9 mph 27.6 mph N/A   Clear
1:52 PM 93.2 °F 46.4 °F 20% 29.54 in 10.0 mi WNW 18.4 mph 27.6 mph N/A   Clear
2:12 PM 93.2 °F 46.4 °F 20% 29.54 in 10.0 mi WNW 19.6 mph 29.9 mph N/A   Clear
2:32 PM 93.2 °F 42.8 °F 17% 29.55 in 10.0 mi NW 25.3 mph 35.7 mph N/A   Clear
2:52 PM 93.2 °F 44.6 °F 19% 29.55 in 10.0 mi NW 27.6 mph 33.4 mph N/A   Clear
3:12 PM 93.2 °F 44.6 °F 19% 29.55 in 10.0 mi WNW 32.2 mph 38.0 mph N/A   Clear
3:32 PM 93.2 °F 39.2 °F 15% 29.56 in 10.0 mi WNW 32.2 mph 40.3 mph N/A   Clear
3:52 PM 91.4 °F 42.8 °F 18% 29.57 in 10.0 mi WNW 28.8 mph 38.0 mph N/A   Clear
4:12 PM 89.6 °F 35.6 °F 15% 29.58 in 10.0 mi NW 33.4 mph 43.7 mph N/A   Clear
4:32 PM 87.8 °F 37.4 °F 17% 29.59 in 10.0 mi WNW 29.9 mph 39.1 mph N/A   Clear
4:52 PM 87.8 °F 32.0 °F 14% 29.59 in 10.0 mi WNW 29.9 mph 41.4 mph N/A   Clear
5:12 PM 87.8 °F 33.8 °F 15% 29.59 in 10.0 mi WNW 32.2 mph 40.3 mph N/A   Clear
5:32 PM 86.0 °F 33.8 °F 15% 29.60 in 10.0 mi NW 29.9 mph 35.7 mph N/A   Clear
5:52 PM 86.0 °F 33.8 °F 15% 29.60 in 10.0 mi NW 33.4 mph 40.3 mph N/A   Clear
6:12 PM 84.2 °F 33.8 °F 16% 29.61 in 10.0 mi WNW 31.1 mph 41.4 mph N/A   Clear
6:32 PM 82.4 °F 35.6 °F 19% 29.62 in 10.0 mi NW 28.8 mph 38.0 mph N/A   Clear
6:52 PM 82.4 °F 35.6 °F 19% 29.62 in 10.0 mi WNW 26.5 mph 34.5 mph N/A   Clear
7:12 PM 80.6 °F 37.4 °F 21% 29.63 in 10.0 mi NW 29.9 mph 36.8 mph N/A   Clear
7:32 PM 78.8 °F 39.2 °F 24% 29.64 in 10.0 mi NW 33.4 mph 40.3 mph N/A   Clear
7:52 PM 75.2 °F 41.0 °F 29% 29.65 in 10.0 mi NW 28.8 mph 39.1 mph N/A   Clear
8:12 PM 75.2 °F 42.8 °F 31% 29.66 in 10.0 mi NW 29.9 mph 35.7 mph N/A   Clear
8:32 PM 71.6 °F 42.8 °F 35% 29.68 in 10.0 mi NW 26.5 mph 34.5 mph N/A   Clear
8:52 PM 69.8 °F 42.8 °F 38% 29.69 in 10.0 mi NW 26.5 mph 33.4 mph N/A   Clear
9:12 PM 69.8 °F 42.8 °F 38% 29.70 in 10.0 mi NW 24.2 mph 32.2 mph N/A   Clear
9:32 PM 66.2 °F 42.8 °F 43% 29.72 in 10.0 mi NW 20.7 mph 31.1 mph N/A   Clear
9:52 PM 66.2 °F 42.8 °F 43% 29.74 in 10.0 mi NW 26.5 mph 33.4 mph N/A   Clear
10:12 PM 64.4 °F 42.8 °F 45% 29.75 in 10.0 mi NW 17.3 mph - N/A   Clear
10:32 PM 64.4 °F 44.6 °F 49% 29.76 in 10.0 mi NW 15.0 mph - N/A   Clear
10:52 PM 62.6 °F 44.6 °F 52% 29.77 in 10.0 mi NW 15.0 mph - N/A   Clear
11:12 PM 62.6 °F 44.6 °F 52% 29.78 in 10.0 mi NW 11.5 mph - N/A   Clear
11:32 PM 60.8 °F 42.8 °F 52% 29.79 in 10.0 mi NW 10.4 mph - N/A   Clear
11:52 PM 59.0 °F 42.8 °F 55% 29.80 in 10.0 mi NW 10.4 mph - N/A   Clear